Tracking 31027 objects as of 19-Jul-2025
HD Live streaming from Space Station
objects crossing your sky now

TACSAT-6

Track TACSAT-6 now!
10-day predictions
TACSAT-6 is classified as:


NORAD ID: 39473
Int'l Code: 2013-072M
Perigee: 403.2 km
Apogee: 585.2 km
Inclination: 120.5 °
Period: 94.3 minutes
Semi major axis: 6865 km
RCS: Unknown
Launch date: December 6, 2013
Source: United States (US)
Launch site: AIR FORCE WESTERN TEST RANGE (AFWTR)

TACSAT-6 is a military satellite that will test advanced nanosatellite communications technologies.
Your satellite tracking list
COSMOS 2251 DEB
Track 1 satellite(s)




NASA's NSSDC Master Catalog

Two Line Element Set (TLE):
1 39473U 13072M   25199.14994462  .00024048  00000-0  72079-3 0  9990
2 39473 120.4759 238.7803 0132600  41.6067 319.5014 15.26243092 67845
Source of the keplerian elements: AFSPC